User: anonymous   Login
Location: Livonia
(42.3680°N, 83.3530°W)
Time: 05:30:23
(UTC-04:00)
Language:

MOZ.5/SAFIR/RUBIN 5/SL-8 - Orbit

View from above orbital plane
View from above orbital plane
View from above satellite
View from above satellite

Ground track
Ground track

The orbit data is extracted from the following two-line orbital elements,

1 28898U 05043G   15209.50323845  .00000154  00000-0  41075-4 0  9995
2 28898 097.8492 021.9016 0019566 193.3729 166.6956 14.59938475519195
Epoch (UTC): 28 July 2015 12:04:39
Eccentricity: 0.0019566
inclination: 97.8492°
perigee height: 679 km
apogee height: 707 km
right ascension of ascending node: 21.9016°
argument of perigee: 193.3729°
revolutions per day: 14.59938475
mean anomaly at epoch: 166.6956°
orbit number at epoch: 51919

The dashed part of the orbit path shows where the satellite is in the earth's shadow,  

DLR